Location: *
(55.5817°S, 142.4781°W)
Time: 07:24:31
(UTC+00:00)

Cosmos 2221 Rocket - Pass Details

Date: 29 April 2025
Orbit: 615 x 644 km, 82.5° (Epoch: 23 May)

Event Time Altitude Azimuth Distance (km) Brightness Sun altitude
Rises 15:43:23 0° 193° (SSW) 2,985 6.8 -9.8°
Reaches altitude 10° 15:45:39 10° 193° (SSW) 2,072 6.0 -9.5°
Maximum altitude 15:50:16 86° 280° (W) 663 3.7 -8.9°
Drops below altitude 10° 15:54:52 10° 8° (N) 2,058 6.5 -8.2°
Sets 15:57:06 0° 8° (N) 2,962 7.4 -7.9°
